Weather in Blagoveshchen'e

Russia / Vologda Oblast     60°43′47″N   46°06′05″E
temp.,
°C
wind,
m/s
gust,
m/s
humid.,
%
clouds,
%
prec.,
mm/h
press.,
hPa
HPBL,
m
28 september, tue
tue2800:00+1ne22950 0.0 103224
03:00+1ne229419 0.0 103228
06:000ne229457 0.0 103323
09:00+5nne127362 0.0 1033272
12:00+9ne12575 0.0 1033741
15:00+10n23555 0.0 10321007
18:00+5n228467 0.0 103320
21:00+5n249112 0.0 1033105
29 september, wed
wed2900:00+3nnw229547 0.0 103422
03:00+5nw2590100 0.0 1033168
06:00+5wnw2691100 0.0 1033187
09:00+7nw2485100 0.0 1033221
12:00+11nw236692 0.0 1032766
15:00+12nw236364 0.0 10311111
18:00+7nnw228863 0.0 103122
21:00+6nnw229496 0.0 103119
30 september, thu
thu3000:00+7wnw2391100 0.0 103180
03:00+7wnw269391 0.0 1030180
06:00+6wnw399786 0.0 1030254
09:00+9nw4107259 0.0 1030463
12:00+12nnw475861 0.0 1029739
15:00+13nnw37615 0.0 1029795
18:00+8nw278724 0.0 1029146
21:00+6nw289579 0.0 1030166
1 october, fri
fri100:00+6nw2596100 0.0 1030105
03:00+5nw2596100 0.0 1030114
06:00+5nw259796 0.0 1030118
09:00+8nw2483100 0.0 1030282
12:00+11nw236890 0.0 1030722
15:00+11nw2467100 0.0 1030737
18:00+7wnw1189100 0.0 103010
21:00+7wnw2294100 0.0 103023
2 october, sat
sat200:00+6w2396100 0.0 103045
03:00+5wnw249791 0.0 103084
06:00+4wnw239647 0.0 103057
09:00+8w247989 0.0 1031270
12:00+12w24615 0.0 1031756
15:00+12w34585 0.0 1030950
18:00+7w22849 0.0 103117
21:00+6w229182 0.0 103219